Orbital Elements at Epoch 2459200.5 (2020-Dec-17.0) TDB
Reference: JPL 40 (heliocentric ecliptic J2000)
Element | Value | Uncertainty (1-sigma) | Units |
e | .0792004450821643 | 3.1043e-08 | |
a | 2.980787677696206 | 1.6214e-08 | au |
q | 2.744707966927236 | 8.8818e-08 | au |
i | 6.311962972298795 | 3.4824e-06 | deg |
node | 219.6632301970841 | 2.7888e-05 | deg |
peri | 41.14138079288401 | 3.6349e-05 | deg |
M | 156.1174132087246 | 2.4799e-05 | deg |
tp | 2458385.338169171137 (2018-Sep-23.83816917) | 0.00012805 | TDB |
period | 1879.727911620244 5.15 | 1.5337e-05 4.199e-08 | d yr |
n | .1915170795595069 | 1.5626e-09 | deg/d |
Q | 3.216867388465177 | 1.7498e-08 | au |
|
| | Orbit Determination Parameters
Additional Information
|